This is the latest recevied weather packets stored in our database for station/object N5PA. If no packets are shown the sender has not sent any weather packets the latest 10 day(s).
| Time | Temp. | Humidity | Pressure | Rain* | Wind** | Luminosity | Snow |
|---|---|---|---|---|---|---|---|
| 1778009407 | 27.22° C | 58% | 1011.9 hPa | 0 mm | - | 991 W/m² | - |
| 1778009106 | 27.22° C | 56% | 1012 hPa | 0 mm | - | 990 W/m² | - |
| 1778008809 | 27.22° C | 58% | 1012 hPa | 0 mm | - | 990 W/m² | - |
| 1778008507 | 27.22° C | 55% | 1012.2 hPa | 0 mm | - | 991 W/m² | - |
| 1778008207 | 26.67° C | 59% | 1012.1 hPa | 0 mm | - | 990 W/m² | - |
| 1778007906 | 26.67° C | 57% | 1012.2 hPa | 0 mm | - | 990 W/m² | - |
| 1778007607 | 26.67° C | 58% | 1012.4 hPa | 0 mm | - | 990 W/m² | - |
| 1778007307 | 26.67° C | 57% | 1012.4 hPa | 0 mm | - | 991 W/m² | - |
| 1778007007 | 26.67° C | 56% | 1012.5 hPa | 0 mm | - | 990 W/m² | - |
| 1778006706 | 26.67° C | 55% | 1012.4 hPa | 0 mm | - | 991 W/m² | - |
| 1778006406 | 26.67° C | 56% | 1012.5 hPa | 0 mm | - | 990 W/m² | - |
| 1778006107 | 26.67° C | 56% | 1012.6 hPa | 0 mm | - | 991 W/m² | - |
| 1778005806 | 26.67° C | 59% | 1012.6 hPa | 0 mm | - | 993 W/m² | - |
| 1778005508 | 26.11° C | 59% | 1012.7 hPa | 0 mm | - | 991 W/m² | - |
| 1778005206 | 26.11° C | 57% | 1012.8 hPa | 0 mm | - | 993 W/m² | - |
| 1778004906 | 26.11° C | 57% | 1012.9 hPa | 0 mm | - | 993 W/m² | - |
| 1778004607 | 26.11° C | 57% | 1013 hPa | 0 mm | - | 991 W/m² | - |
| 1778004307 | 26.11° C | 56% | 1012.9 hPa | 0 mm | - | 993 W/m² | - |
| 1778004007 | 26.11° C | 58% | 1012.9 hPa | 0 mm | - | 993 W/m² | - |
| 1778003707 | 26.11° C | 57% | 1012.9 hPa | 0 mm | - | 993 W/m² | - |
| 1778003406 | 26.11° C | 56% | 1013.1 hPa | 0 mm | - | 993 W/m² | - |
| 1778003107 | 26.11° C | 56% | 1013.2 hPa | 0 mm | - | 991 W/m² | - |
| 1778002806 | 26.11° C | 57% | 1013.3 hPa | 0 mm | - | 991 W/m² | - |
| 1778002507 | 26.11° C | 57% | 1013.2 hPa | 0 mm | - | 991 W/m² | - |
| 1778002207 | 26.11° C | 56% | 1013.3 hPa | 0 mm | - | 991 W/m² | - |
* Rain latest hour (hover to see other rain measurements)
** Current wind speed in m/s (hover to see current wind gust speed)